Hourly Data Report for October 13, 2019

All times are specified in Local Standard Time (LST). Add 1 hour to adjust for Daylight Saving Time where and when it is observed.

WOODSTOCK NEWBRIDGE
NEW BRUNSWICK
Current Station Operator: ECCC - MSC

46°09'08.000" N
67°32'34.000" W
154.00 m
8105603
71606
EWD

Download Data

Hourly Data (October 2019)
Hourly Data Report for October 13, 2019
TIME Temp Definition
°C
Dew Point Definition
°C
Rel Hum Definition
%
Wind Dir Definition
10's deg

Wind Spd Definition
km/h
Visibility Definition
km
Stn Press Definition
kPa
Hmdx Definition


Wind Chill Definition


Weather Definition


00:00 9.2 7.2 88 31 2   99.57     LegendNANA
01:00 9.0 7.4 90 2 1   99.55     LegendNANA
02:00 8.9 7.1 88 1 3   99.54     LegendNANA
03:00 8.9 7.0 88   0   99.56     LegendNANA
04:00 8.6 7.2 91 28 2   99.60     LegendNANA
05:00 8.7 7.4 91 27 1   99.64     LegendNANA
06:00 7.0 5.8 92   0   99.68     LegendNANA
07:00 7.6 7.2 97   0   99.71     LegendNANA
08:00 9.4 7.7 89 29 3   99.76     LegendNANA
09:00 10.1 7.5 84 31 3   99.81     LegendNANA
10:00 11.5 8.2 80 32 5   99.84     LegendNANA
11:00 13.0 8.7 75 30 5   99.82     LegendNANA
12:00 13.3 8.7 73 31 9   99.81     LegendNANA
13:00 14.5 8.7 69 30 9   99.78     LegendNANA
14:00 15.6 9.3 66 28 7   99.77     LegendNANA
15:00 15.2 9.6 69 28 4   99.77     LegendNANA
16:00 15.0 10.3 73   0   99.76     LegendNANA
17:00 15.3 10.6 74 25 5   99.76     LegendNANA
18:00 11.0 8.6 85   0   99.79     LegendNANA
19:00 9.1 8.4 95   0   99.85     LegendNANA
20:00 8.4 7.4 94   0   99.88     LegendNANA
21:00 6.7 5.9 95   0   99.89     LegendNANA
22:00 5.4 4.7 95 11 1   99.92     LegendNANA
23:00 4.9 4.4 97   0   99.94     LegendNANA

Notes on Data Quality.

Legend

  • E = Estimated
  • M = Missing
  • NA = Not Available
Date modified: